sat.trackr.live / text

‹ back to catalog

STARLINK-3534

NORAD 52120 · 2022-029AJ

PAYLOAD ACTIVE UNKNOWN

§ Identity

Operator
Country
US
Launch date
2022-03-19
Launch site
AFETR
Launch vehicle
Mass (kg)
RCS (m²)

Purposes: comms

External: N2YO · Heavens-Above · Gunter

§ Orbital elements

Epoch: 2026-09-19T16:04:25.487616Z

Period
93.85 min
Inclination
53.1603°
Eccentricity
0.0001264
Mean motion
15.34375735 rev/d
Perigee alt
461.9 km
Apogee alt
463.6 km
Semi-major
6,840.9 km
B*
-1.5750e-6
RAAN
271.4054°
Arg perigee
96.1623°
Mean anomaly
263.9524°
Rev number
25,031

§ Raw data

STARLINK-35341 52120U 22029AJ  26262.66973944 -.00000429  00000+0 -15750-5 0  99902 52120  53.1603 271.4054 0001264  96.1623 263.9524 15.34375735250318

JSON: /api/v1/satellites/52120 · /tle

For live sub-satellite position, see the globe view (requires WebGL).

§ Visibility from observer

Set your observer location to see the next 7 days of passes ≥ 10°. The values pass through the URL so the page stays shareable.

No JS? Fill the form by hand. The geolocation button needs JavaScript.